Flag for Faroe Islands Weather past 2 weeks in Tórshavn, Faroe Islands, Faroe Islands

Now
32 °F

Passing clouds.


Feels Like: 18 °F
Forecast: N/A
Wind: 29 mph from North

Location: Soervaag / Vagar

Current Time: Jan 31, 2015 at 7:37:42 PM

Latest Report: Jan 31, 2015 at 6:57 PM


Visibility: N/A

Pressure: 29.68 "Hg

Humidity: 64%

Dew point: 21 °F

Location of TórshavnLocation

Historic Weather in Tórshavn — Graph

°F

Tórshavn temperature yesterday

Maximum temperature yesterday: 36 °F (at 12:20 AM)
Minimum temperature yesterday: 32 °F (at 9:20 AM)
Average temperature yesterday: 34 °F

Past Weeks' High & Low Weather Summary

 TemperatureHumidityPressure
High48 °F (Jan 25, 10:20 AM)100% (Jan 22, 3:50 PM)30.18 "Hg (Jan 22, 3:50 PM)
Low23 °F (Jan 19, 4:50 AM)53% (Jan 25, 10:20 PM)28.62 "Hg (Jan 29, 4:20 AM)
Average37 °F82%29.46 "Hg
* Reported Jan 16 5:20 PM — Jan 31 5:50 PM, Tórshavn, Weather by CustomWeather, © 2014

Note: Actual official high and low records may vary slightly from our data, if they occured in-between our weather recording intervals... More about our weather records

Advertising

Tórshavn weather history for previous 24 hours

 ConditionsComfort  
Time TempWeatherWind HumidityBarometerVisibility
5:50 PM
Jan 31
32 °FPassing clouds.29 mph60%29.68 "HgN/A
4:50 PM32 °FPassing clouds.31 mph64%29.65 "HgN/A
3:50 PM32 °FPartly sunny.33 mph69%29.62 "HgN/A
3:20 PM32 °FLight freezing rain. Partly sunny.31 mph69%29.62 "HgN/A
2:50 PM32 °FLight freezing rain. Ice fog.37 mph69%29.59 "Hg2 mi
2:20 PM32 °FLight freezing rain. Partly sunny.32 mph75%29.59 "Hg1 mi
1:50 PM34 °FPartly sunny.35 mph65%29.56 "HgN/A
12:56 PM34 °FPartly sunny.35 mph70%29.56 "HgN/A
12:09 PM30 °FSnow flurries. Partly sunny.39 mph86%29.56 "HgN/A
10:26 AM34 °FBroken clouds.38 mph65%29.50 "HgN/A
9:58 AM32 °FBroken clouds.32 mph80%29.50 "HgN/A
8:50 AM34 °FPassing clouds.36 mph75%29.47 "HgN/A
8:20 AM30 °FSnow showers. Partly cloudy.40 mph86%29.47 "Hg1 mi
7:50 AM32 °FLight freezing rain. Passing clouds.38 mph80%29.47 "Hg1 mi
7:20 AM34 °FLight freezing rain. Passing clouds.41 mph70%29.47 "HgN/A
6:50 AM30 °FLight freezing rain. Passing clouds.40 mph93%29.45 "Hg1 mi
6:20 AM32 °FFreezing rain. Passing clouds.37 mph80%29.45 "Hg1 mi
5:50 AM32 °FLight snow. Ice fog.40 mph80%29.45 "Hg1 mi
5:20 AM34 °FLight snow. Passing clouds.39 mph70%29.42 "Hg4 mi
4:50 AM34 °FLight freezing rain. Passing clouds.43 mph65%29.42 "HgN/A
4:20 AM34 °FLight freezing rain. Passing clouds.40 mph65%29.42 "HgN/A
3:20 AM34 °FFreezing rain. Passing clouds.39 mph70%29.39 "Hg6 mi
2:50 AM32 °FFreezing rain. Passing clouds.30 mph87%29.39 "Hg1 mi
2:20 AM34 °FLight freezing rain. Passing clouds.40 mph75%29.36 "Hg6 mi
1:50 AM34 °FFreezing rain. Passing clouds.36 mph75%29.36 "Hg4 mi
1:20 AM36 °FLight freezing rain. Fog.46 mph65%29.33 "Hg2 mi
12:50 AM36 °FLight freezing rain. Passing clouds.40 mph56%29.33 "HgN/A
12:20 AM36 °FLight freezing rain. Fog.37 mph60%29.30 "Hg3 mi
11:50 PM
Jan 30
36 °FLight freezing rain. Passing clouds.37 mph60%29.30 "HgN/A
11:20 PM34 °FLight freezing rain. Passing clouds.43 mph70%29.27 "Hg1 mi
10:50 PM36 °FSprinkles. Passing clouds.45 mph60%29.27 "HgN/A
10:20 PM36 °FPassing clouds.38 mph60%29.24 "HgN/A
9:50 PM36 °FLight freezing rain. Passing clouds.37 mph65%29.24 "HgN/A
9:20 PM34 °FLight snow. Fog.38 mph75%29.24 "Hg1 mi
8:50 PM34 °FFreezing rain. Passing clouds.41 mph81%29.21 "Hg1 mi
8:20 PM36 °FLight freezing rain. Passing clouds.37 mph70%29.21 "Hg2 mi
7:50 PM34 °FLight freezing rain. Passing clouds.45 mph81%29.18 "Hg2 mi
7:20 PM34 °FLight freezing rain. Fog.40 mph75%29.18 "Hg3 mi
Weather by CustomWeather, © 2014

See weather overviewHow to use our weather pages